Location: Oberkirch
(48.5323°N, 8.0787°E)
Time: 16:47:21
(UTC+00:00)

SL-24 R/B - RUBIN 2 - Pass Details

Date: 14 February 2026
Orbit: 603 x 984 km, 64.6° (Epoch: 8 March)

Event Time Altitude Azimuth Distance (km) Brightness Sun altitude
Exits shadow 03:20:42 19° 24° (NNE) 1,511 5.9 -32.8°
Drops below altitude 10° 03:22:06 10° 31° (NNE) 2,020 6.7 -32.6°
Sets 03:24:22 0° 37° (NE) 2,901 7.7 -32.2°
